[Iaude] MPEC U127: 2016 UH57 [a=1.34,e=0.26,i=12.7,H=26.3]

mpec at si.edu mpec at si.edu
Mon Oct 31 18:37:44 EDT 2016


M.P.E.C. 2016-U127                               Issued 2016 Oct. 31, 22:33 UT
 
     The Minor Planet Electronic Circulars contain information on unusual
         minor planets and routine data on comets.  They are published
    on behalf of Division F of the International Astronomical Union by the
          Minor Planet Center, Smithsonian Astrophysical Observatory,
                          Cambridge, MA 02138, U.S.A.

             Prepared using the Tamkin Foundation Computer Network

                              MPC at CFA.HARVARD.EDU
            URL http://www.minorplanetcenter.net/    ISSN 1523-6714


                                   2016 UH57
 
Observations:
     K16U57H* C2016 10 30.37715 02 38 18.68 -01 01 37.2          18.2 VqEU127703
     K16U57H  C2016 10 30.38316 02 38 17.69 -00 57 33.8          18.5 VqEU127703
     K16U57H  C2016 10 30.38917 02 38 16.74 -00 53 29.7          18.5 VqEU127703
     K16U57H  C2016 10 30.39518 02 38 15.80 -00 49 26.1          18.4 VqEU127703
     K16U57H KC2016 10 30.93665 02 38 21.85 +05 37 53.8          17.9 RrEU127106
     K16U57H KC2016 10 30.93878 02 38 21.52 +05 39 31.4          17.9 RrEU127106
     K16U57H KC2016 10 30.94091 02 38 21.20 +05 41 09.2          17.8 RrEU127106
     K16U57H KC2016 10 31.83782 02 38 14.99 +17 55 34.6                tEU127595
     K16U57H  C2016 10 31.84068 02 38 13.51 +17 57 44.1                qEU127246
     K16U57H  C2016 10 31.84078 02 38 13.52 +17 57 50.8                qEU127246
     K16U57H  C2016 10 31.84089 02 38 13.53 +17 57 55.1          18.2 RqEU127246
     K16U57H  C2016 10 31.84099 02 38 13.48 +17 58 01.2                qEU127246
     K16U57H  C2016 10 31.84109 02 38 13.44 +17 58 06.4                qEU127246
     K16U57H KC2016 10 31.84187 02 38 14.42 +17 59 07.6          18.7 VtEU127595
     K16U57H KC2016 10 31.84593 02 38 13.85 +18 02 40.5          18.3 VtEU127595
     K16U57H KC2016 10 31.89905 02 38 11.60 +18 49 26.5          18.0 VUEU127958
     K16U57H KC2016 10 31.90199 02 38 11.15 +18 52 01.9          18.1 VUEU127958
     K16U57H KC2016 10 31.90493 02 38 10.74 +18 54 37.2          17.8 VUEU127958
 
Observer details:
106 Crni Vrh.  Observer B. Mikuz.  0.6-m f/3.3 Deltagraph + CCD.
246 Klet Observatory-KLENOT.  Observers M. Tichy, J. Ticha.  Measurer M. Tichy.
    1.06-m KLENOT Telescope + CCD.
595 Farra d'Isonzo.  Observers E. Pettarin, R. Pigozzi, F. Piani.  Measurer
    E. Pettarin.  0.40-m f/4.5 reflector + CCD.
703 Catalina Sky Survey.  Observer R. G. Matheny.  Measurers E. J. Christensen,
    D. C. Fuls, A. R. Gibbs, A. D. Grauer, J. A. Johnson, R. A. Kowalski,
    S. M. Larson, G. J. Leonard, R. G. Matheny, R. L. Seaman, F. C. Shelly.
    0.68-m Schmidt + CCD.
958 Observatoire de Dax.  Observers P. Dupouy, J. B. de Vanssay.  Measurer
    P. Dupouy.  0.43-m f/2.7 reflector + CCD.
 
Orbital elements:
2016 UH57                                                Earth MOID = 0.0164 AU
Epoch 2016 July 31.0 TT = JDT 2457600.5                 MPC
M 289.32564              (2000.0)            P               Q
n   0.63365413     Peri.   20.73633     +0.51669037     -0.84508410
a   1.3424595      Node    38.51583     +0.75118556     +0.37049173
e   0.2573111      Incl.   12.74160     +0.41079351     +0.38544615
P   1.56           H   26.3           G   0.15           U   8
Residuals in seconds of arc
161030 703  0.7+  0.6-    161030 106  0.3-  0.7+    161031 246  0.1+  0.2-
161030 703  0.2+  0.3-    161031 595  0.1-  0.3+    161031 595  0.4-  0.0
161030 703  0.1+  0.4+    161031 246  0.4+  0.9-    161031 595  0.5-  0.9-
161030 703  0.1-  0.3+    161031 246  0.7+  0.5+    161031 958  0.7-  1.0+
161030 106  0.5-  0.4-    161031 246  1.0+  0.9-    161031 958  0.6-  0.7+
161030 106  0.5-  0.1+    161031 246  0.5+  0.1-    161031 958  0.1+  0.3+

Ephemeris:
2016 UH57                a,e,i = 1.34, 0.26, 13                  q = 0.9970
Date    TT    R. A. (2000) Decl.     Delta      r     Elong.  Phase     V
2016 10 01    02 31 06.4 -49 54 37   0.1441  1.0821   120.8    52.6    24.2
...
2016 10 16    02 37 49.6 -46 24 30   0.07768 1.0404   122.3    54.0    22.8
...
2016 10 24    02 39 06.6 -36 22 32   0.04293 1.0232   130.8    47.4    21.3
...
2016 10 30    02 38 34.9 -05 00 48   0.02098 1.0128   160.5    19.1    18.9
2016 10 31    02 38 17.2 +06 30 37   0.01878 1.0113   171.4     8.5    18.3
2016 11 01    02 37 53.8 +20 21 10   0.01753 1.0099   173.4     6.5    18.0
...
2016 11 07    02 24 50.3 +83 47 03   0.03004 1.0028   112.4    66.0    21.0
...
2016 11 15    14 43 21.5 +77 15 03   0.06269 0.9975    95.9    80.5    23.1
...
2016 11 30    14 39 50.4 +69 26 54   0.1245  1.0005    93.0    79.8    24.6

A. U. Tomatic                (C) Copyright 2016 MPC           M.P.E.C. 2016-U127




More information about the Iaude mailing list